Melfa, VA

7:32 PM EST on February 24, 2017 (GMT -0500)
Accomack County

Weather History for KMFV - March, 2013

Change the Weather History Date:

Wednesday, March 6, 2013

  Actual Average (KWAL) Record (KWAL)
Temperature  
Mean Temperature 42 °F -  
Max Temperature 48 °F 48 °F 68 °F (2004)
Min Temperature 37 °F 33 °F 16 °F (2015)
Degree Days  
Heating Degree Days 22    
Moisture  
Dew Point 39 °F    
Average Humidity 89    
Maximum Humidity 93    
Minimum Humidity 81    
Precipitation  
Precipitation 2.11 in - - ()
Sea Level Pressure  
Sea Level Pressure 29.53 in    
Wind  
Wind Speed 17 mph (NE)    
Max Wind Speed 30 mph    
Max Gust Speed 48 mph    
Visibility 6 miles    
Events Rain , Thunderstorm    
Averages and records for this station are not official NWS values.
T = Trace of Precipitation, MM = Missing Value Source: NWS Daily Summary

Daily Weather History Graph

Daily Weather History Graph

Search for Another Location

Airport or City:

Trip Planner

Search our weather history database for the weather conditions in past years. The results will help you decide how hot, cold, wet, or windy it might be!

Date:

Astronomy

Mar. 06, 2013 Rise Set
Actual Time 6:27 AM EST 6:01 PM EST
Civil Twilight 6:00 AM EST 6:28 PM EST
Nautical Twilight 5:30 AM EST 6:58 PM EST
Astronomical Twilight 5:00 AM EST 7:28 PM EST
Moon 2:29 AM EST (3/6) 12:45 PM EST (3/6)
Length of Visible Light 12h 27m
Length of Day
11h 34m
Waning Crescent, 30% of the Moon is Illuminated
Mar 6
Waning Crescent
Mar 11
New
Mar 19
First Quarter
Mar 27
Full
Apr 3
Last Quarter

Hourly Weather History & Observations

Time (EST) Temp. Windchill Dew Point Humidity Pressure Visibility Wind Dir Wind Speed Gust Speed Precip Events Conditions
12:15 AM 39.2 °F 30.5 °F 37.4 °F 93% 29.76 in 4.0 mi East 16.1 mph 25.3 mph 0.01 in Rain Rain
12:35 AM 41.0 °F 33.1 °F 37.4 °F 87% 29.76 in 4.0 mi East 15.0 mph 24.2 mph 0.06 in Rain Rain
12:55 AM 41.0 °F 32.8 °F 37.4 °F 87% 29.72 in 10.0 mi East 16.1 mph 21.9 mph 0.08 in Rain Light Rain
1:15 AM 41.0 °F 33.9 °F 37.4 °F 87% 29.72 in 7.0 mi East 12.7 mph 25.3 mph 0.03 in Rain Rain
1:35 AM 42.8 °F 35.1 °F 39.2 °F 87% 29.70 in 5.0 mi East 16.1 mph 21.9 mph 0.07 in Rain Rain
1:55 AM 42.8 °F 34.8 °F 39.2 °F 87% 29.68 in 4.0 mi East 17.3 mph 27.6 mph 0.16 in Rain Heavy Rain
2:15 AM 42.8 °F 33.5 °F 39.2 °F 87% 29.65 in 7.0 mi East 23.0 mph 34.5 mph 0.06 in Rain Rain
2:35 AM 42.8 °F 34.3 °F 39.2 °F 87% 29.63 in 7.0 mi East 19.6 mph 31.1 mph 0.10 in Rain Light Rain
2:55 AM 42.8 °F 33.3 °F 39.2 °F 87% 29.61 in 7.0 mi East 24.2 mph 32.2 mph 0.13 in Rain Rain
3:15 AM 44.6 °F 36.4 °F 41.0 °F 87% 29.60 in 5.0 mi East 20.7 mph 29.9 mph 0.04 in Rain Rain
3:35 AM 44.6 °F 36.6 °F 41.0 °F 87% 29.61 in 4.0 mi East 19.6 mph 32.2 mph 0.11 in Rain Rain
3:55 AM 44.6 °F 36.4 °F 41.0 °F 87% 29.58 in 7.0 mi East 20.7 mph 28.8 mph 0.15 in Rain Rain
4:15 AM 44.6 °F 36.4 °F 42.8 °F 93% 29.56 in 7.0 mi East 20.7 mph 29.9 mph 0.05 in Rain Rain
4:35 AM 44.6 °F 36.6 °F 42.8 °F 93% 29.54 in 5.0 mi East 19.6 mph 32.2 mph 0.05 in Rain Light Rain
4:55 AM 44.6 °F 36.4 °F 42.8 °F 93% 29.52 in 7.0 mi East 20.7 mph 34.5 mph 0.08 in Rain Light Rain
5:15 AM 44.6 °F 35.9 °F 42.8 °F 93% 29.50 in 7.0 mi East 23.0 mph 33.4 mph N/A   Light Drizzle
5:55 AM 44.6 °F 36.1 °F 42.8 °F 93% 29.48 in 7.0 mi East 21.9 mph 36.8 mph 0.01 in Rain Light Rain
6:15 AM 44.6 °F 35.5 °F 42.8 °F 93% 29.47 in 5.0 mi East 25.3 mph 35.7 mph 0.03 in Rain Rain
6:35 AM 44.6 °F 36.6 °F 42.8 °F 93% 29.47 in 7.0 mi ENE 19.6 mph 36.8 mph 0.06 in Rain Light Rain
6:55 AM 46.4 °F 38.3 °F 42.8 °F 87% 29.44 in 4.0 mi East 23.0 mph 34.5 mph 0.09 in Rain Rain
7:15 AM 46.4 °F 37.9 °F 44.6 °F 93% 29.42 in 5.0 mi East 25.3 mph 42.6 mph 0.02 in Rain Light Rain
7:35 AM 46.4 °F 37.9 °F 42.8 °F 87% 29.40 in 4.0 mi East 25.3 mph 39.1 mph 0.05 in Rain Rain
7:55 AM 46.4 °F 38.1 °F 44.6 °F 93% 29.36 in 7.0 mi East 24.2 mph 46.0 mph 0.07 in Rain Light Rain
8:15 AM 46.4 °F 39.5 °F 44.6 °F 93% 29.37 in 2.5 mi SSE 17.3 mph 36.8 mph 0.05 in Rain Heavy Rain
8:35 AM 46.4 °F 38.5 °F 44.6 °F 93% 29.35 in 5.0 mi East 21.9 mph 33.4 mph 0.08 in Rain Light Rain
8:55 AM 46.4 °F 37.7 °F 44.6 °F 93% 29.34 in 5.0 mi East 26.5 mph 44.9 mph 0.08 in   Overcast
9:15 AM 46.4 °F 37.2 °F 44.6 °F 93% 29.33 in 5.0 mi East 29.9 mph 48.3 mph N/A Thunderstorm Unknown
9:35 AM 46.4 °F 41.5 °F 44.6 °F 93% 29.32 in 1.0 mi South 10.4 mph 33.4 mph 0.22 in Rain , Thunderstorm Heavy Thunderstorms and Rain
9:55 AM 48.2 °F - 44.6 °F 87% 29.33 in 2.0 mi East 12.7 mph 27.6 mph 0.33 in Rain , Thunderstorm Rain
10:15 AM 48.2 °F - 44.6 °F 87% 29.32 in 1.0 mi SSW 6.9 mph - 0.19 in Thunderstorm Overcast
10:35 AM 44.6 °F 39.7 °F 42.8 °F 93% 29.33 in 10.0 mi SW 9.2 mph 17.3 mph 0.23 in Rain , Thunderstorm Light Thunderstorms and Rain
10:55 AM 42.8 °F 36.2 °F 41.0 °F 93% 29.32 in 10.0 mi SW 12.7 mph 20.7 mph 0.23 in Rain , Thunderstorm Light Thunderstorms and Rain
11:15 AM 42.8 °F 37.0 °F 39.2 °F 87% 29.32 in 4.0 mi SW 10.4 mph 18.4 mph 0.08 in Rain , Thunderstorm Heavy Thunderstorms and Rain
11:35 AM 41.0 °F 34.3 °F 37.4 °F 87% 29.31 in 10.0 mi West 11.5 mph 19.6 mph 0.09 in Rain Rain
11:56 AM 39.2 °F 33.0 °F 37.4 °F 93% 29.31 in 10.0 mi SW 9.2 mph 21.9 mph N/A Rain Light Rain
12:15 PM 39.2 °F 32.5 °F 37.4 °F 93% 29.31 in 10.0 mi SSW 10.4 mph 17.3 mph N/A Rain Light Rain
12:35 PM 39.2 °F 35.0 °F 37.4 °F 93% 29.33 in 10.0 mi WSW 5.8 mph - N/A Rain Light Rain
12:55 PM 39.2 °F 35.9 °F 35.6 °F 87% 29.33 in 10.0 mi SW 4.6 mph - N/A   Drizzle
1:15 PM 39.2 °F - 35.6 °F 87% 29.33 in 10.0 mi Calm Calm - N/A   Overcast
1:35 PM 41.0 °F 39.0 °F 35.6 °F 81% 29.32 in 10.0 mi SW 3.5 mph - N/A   Overcast
1:56 PM 41.0 °F 39.0 °F 37.4 °F 87% 29.32 in 10.0 mi SE 3.5 mph - N/A   Overcast
2:15 PM 41.0 °F - 37.4 °F 87% 29.33 in 10.0 mi Calm Calm - N/A   Overcast
2:35 PM 41.0 °F - 37.4 °F 87% 29.35 in 7.0 mi Calm Calm - N/A   Drizzle
2:55 PM 41.0 °F - 37.4 °F 87% 29.35 in 3.0 mi Calm Calm - 0.01 in   Drizzle
3:15 PM 41.0 °F - 37.4 °F 87% 29.37 in 5.0 mi Calm Calm - N/A Rain Light Rain
3:35 PM 41.0 °F 36.4 °F 37.4 °F 87% 29.39 in 10.0 mi NNE 6.9 mph - 0.01 in Rain Light Rain
3:57 PM 41.0 °F 31.1 °F 37.4 °F 87% 29.43 in 2.5 mi North 23.0 mph 40.3 mph 0.01 in Rain Rain
4:15 PM 37.4 °F 27.8 °F 35.6 °F 93% 29.45 in 4.0 mi North 17.3 mph 41.4 mph 0.07 in Rain Rain
4:35 PM 37.4 °F 28.2 °F 35.6 °F 93% 29.46 in 3.0 mi NNW 16.1 mph 29.9 mph 0.10 in Rain Rain
4:55 PM 39.2 °F 29.6 °F 37.4 °F 93% 29.48 in 4.0 mi North 19.6 mph 34.5 mph 0.13 in Rain Rain
5:15 PM 39.2 °F 28.7 °F 37.4 °F 93% 29.51 in 5.0 mi North 23.0 mph 38.0 mph 0.02 in Rain Rain
5:35 PM 39.2 °F 28.5 °F 35.6 °F 87% 29.54 in 3.0 mi North 24.2 mph 41.4 mph 0.05 in Rain Rain
5:55 PM 39.2 °F 29.0 °F 35.6 °F 87% 29.57 in 5.0 mi North 21.9 mph 41.4 mph 0.07 in Rain Light Rain
6:15 PM 39.2 °F 28.3 °F 35.6 °F 87% 29.61 in 5.0 mi North 25.3 mph 34.5 mph 0.02 in Rain Rain
6:35 PM 39.2 °F 28.7 °F 35.6 °F 87% 29.62 in 4.0 mi North 23.0 mph 38.0 mph 0.07 in Rain Light Rain
6:55 PM 39.2 °F 29.0 °F 35.6 °F 87% 29.64 in 3.0 mi NNW 21.9 mph 40.3 mph 0.12 in Rain Heavy Rain
7:15 PM 37.4 °F 27.2 °F 35.6 °F 93% 29.66 in 3.0 mi NNW 19.6 mph 38.0 mph 0.07 in Rain Heavy Rain
7:36 PM 37.4 °F 25.2 °F 35.6 °F 93% 29.68 in 3.0 mi North 28.8 mph 39.1 mph 0.13 in Rain Rain
7:55 PM 37.4 °F 26.1 °F 35.6 °F 93% 29.70 in 5.0 mi North 24.2 mph 41.4 mph 0.16 in Rain Rain
8:15 PM 39.2 °F 28.5 °F 35.6 °F 87% 29.72 in 5.0 mi NNW 24.2 mph 39.1 mph 0.02 in Rain Rain
8:35 PM 39.2 °F 29.0 °F 35.6 °F 87% 29.72 in 5.0 mi NNW 21.9 mph 40.3 mph 0.05 in Rain Rain
8:55 PM 39.2 °F 28.0 °F 35.6 °F 87% 29.74 in 7.0 mi NNW 26.5 mph 41.4 mph 0.07 in Rain Light Rain
9:15 PM 39.2 °F 28.5 °F 35.6 °F 87% 29.75 in 5.0 mi NNW 24.2 mph 39.1 mph 0.01 in Rain Rain
9:36 PM 39.2 °F 29.3 °F 35.6 °F 87% 29.76 in 7.0 mi NNW 20.7 mph 42.6 mph 0.02 in Rain Light Rain
9:55 PM 39.2 °F 28.5 °F 35.6 °F 87% 29.77 in 10.0 mi North 24.2 mph 36.8 mph 0.03 in Rain Light Rain
10:15 PM 39.2 °F 28.7 °F 35.6 °F 87% 29.79 in 10.0 mi North 23.0 mph 34.5 mph N/A Rain Light Rain
10:35 PM 39.2 °F 29.8 °F 35.6 °F 87% 29.79 in 10.0 mi North 18.4 mph 33.4 mph N/A Rain Rain
10:55 PM 39.2 °F 29.8 °F 35.6 °F 87% 29.81 in 10.0 mi North 18.4 mph 35.7 mph N/A Rain Light Rain
11:16 PM 39.2 °F 29.0 °F 35.6 °F 87% 29.82 in 10.0 mi NNW 21.9 mph 36.8 mph N/A Rain Light Rain
11:35 PM 39.2 °F 30.5 °F 35.6 °F 87% 29.83 in 10.0 mi NNW 16.1 mph 27.6 mph 0.01 in Rain Rain
11:55 PM 39.2 °F 30.2 °F 35.6 °F 87% 29.83 in 10.0 mi North 17.3 mph 31.1 mph 0.01 in Rain Rain